Retour au catalogue

BB 1

ActifRadio amateurPO
NORAD 56171·PAYLOAD·🇺🇸 United States

Lancé Apr 2, 2023 depuis Vandenberg Space Force Base

Loading…

Prochains Passages (prochaines 24 heures)

TLE

VieillissantSource: Space-Track

Époque: Sep 9, 2026, 19:12 UTC

1 56171U 23050K   26252.80000030  .00000192  00000-0  72380-4 0  9994
2 56171  81.0038 356.6747 0016175  74.2122 286.0841 14.27917555173420

Suivez BB 1 en temps réel avec AllMySat

Download on the App Store